Location: Dalton
(34.7700°N, 84.9700°W)
Time: 15:58:19
(UTC-04:00)

Vanguard 2 Rocket - Visible Passes

Search period start: 20 October 2017 00:00
Search period end: 30 October 2017 00:00
Orbit: 555 x 3327 km, 32.9° (Epoch: 19 October)

Date Brightness Start Highest point End Pass type
(mag) Time Alt. Az. Time Alt. Az. Time Alt. Az.
20 Oct 10.5 20:25:58 10° W 20:37:34 31° SSW 20:53:08 10° SSE visible
21 Oct 10.2 19:25:41 10° W 19:36:32 38° SSW 19:52:39 10° SSE visible
21 Oct 11.1 21:45:35 10° WSW 21:53:10 14° SW 22:01:43 10° SSW visible
22 Oct 10.8 20:42:31 10° WSW 20:52:04 21° SW 21:04:04 10° S visible
23 Oct 10.6 19:41:25 10° W 19:51:07 27° SSW 20:04:37 10° SSE visible
24 Oct 11.1 21:02:22 10° SW 21:06:45 12° SW 21:11:35 10° SSW visible
25 Oct 10.9 19:58:30 10° WSW 20:05:48 17° SSW 20:15:00 10° S visible
26 Oct 10.7 18:57:22 10° WSW 19:05:06 22° SSW 19:15:51 10° SSE visible
28 Oct 11.0 19:15:34 10° SW 19:19:57 13° SSW 19:25:06 10° S visible
